Satellite-Ground Cal/Val Site Overpasses Predictions

Prediction of Satellite NPP Overpassing Cal/Val Site: Antarctic Dome C

Ground Cal/Val Site Location: Latitude: -75.10, Longitude: 123.35; Satellite-Ground Site NADIR distance within 100 km.

Table of predicted overpasses for the next 14.0 days since TLE Epoch: 5/6/2018
Interval Starting Time Ending Time Minimum Distance Time Minimum Distance (km)
1 05/08/2018 14:54:48 05/08/2018 14:55:17 05/08/2018 14:55:02 21.60
2 05/09/2018 14:36:05 05/09/2018 14:36:20 05/09/2018 14:36:13 85.42
3 05/10/2018 07:37:38 05/10/2018 07:38:05 05/10/2018 07:37:52 34.76
4 05/11/2018 07:18:52 05/11/2018 07:19:11 05/11/2018 07:19:02 75.35
5 05/13/2018 15:01:07 05/13/2018 15:01:30 05/13/2018 15:01:19 58.61
6 05/14/2018 14:42:17 05/14/2018 14:42:42 05/14/2018 14:42:30 50.57
7 05/15/2018 07:43:57 05/15/2018 07:44:18 05/15/2018 07:44:08 69.95
8 05/16/2018 07:25:05 05/16/2018 07:25:32 05/16/2018 07:25:19 37.98
9 05/18/2018 15:07:32 05/18/2018 15:07:40 05/18/2018 15:07:36 96.26


NCC Satellite Cal/Val Overpasses Prediction Service
